| time (UTC) | temp C | wind direction | speed KPH | gust KPH | rain 1hr cm | rain 24hr cm | rain mn cm | humidity % | barometer mb |
| 20260507063001 | 7 | 60 | 8.0 | 0.0 | 0.00 | 0.00 | 0.00 | 83 | 1011.6 |
| 20260507060001 | 7 | 60 | 3.2 | 0.0 | 0.00 | 0.00 | 0.00 | 84 | 1011.6 |
| 20260507053001 | 7 | 50 | 1.6 | 0.0 | 0.00 | 0.00 | 0.00 | 85 | 1010.6 |
| 20260507050001 | 7 | 65 | 6.4 | 0.0 | 0.00 | 0.00 | 0.00 | 84 | 1010.6 |
| 20260507043001 | 7 | 135 | 9.7 | 0.0 | 0.00 | 0.00 | 0.00 | 84 | 1010.6 |
| 20260507040000 | 7 | 130 | 4.8 | 0.0 | 0.00 | 0.00 | 0.00 | 84 | 1009.6 |
| 20260507033001 | 7 | 55 | 3.2 | 0.0 | 0.00 | 0.00 | 0.00 | 85 | 1009.6 |
| 20260507030002 | 7 | 85 | 6.4 | 0.0 | 0.00 | 0.00 | 0.00 | 85 | 1009.6 |
| 20260507023001 | 7 | 85 | 3.2 | 0.0 | 0.00 | 0.00 | 0.00 | 85 | 1009.6 |
| 20260507020001 | 7 | 65 | 6.4 | 0.0 | 0.00 | 0.00 | 0.00 | 85 | 1009.6 |
| 20260507013001 | 7 | 80 | 4.8 | 0.0 | 0.00 | 0.00 | 0.00 | 85 | 1009.6 |
| 20260507010000 | 7 | 60 | 1.6 | 0.0 | 0.00 | 0.00 | 0.00 | 85 | 1008.6 |
| 20260507003001 | 7 | 65 | 6.4 | 0.0 | 0.00 | 0.00 | 0.00 | 85 | 1008.6 |
| 20260507000000 | 7 | 45 | 9.7 | 0.0 | 0.00 | 0.00 | 0.00 | 85 | 1008.6 |
| 20260506233003 | 7 | 70 | 4.8 | 0.0 | 0.00 | 0.00 | 0.00 | 85 | 1008.6 |
| 20260506230001 | 7 | 75 | 6.4 | 0.0 | 0.00 | 0.00 | 0.00 | 86 | 1008.6 |
| 20260506223000 | 8 | 95 | 9.7 | 0.0 | 0.00 | 0.00 | 0.00 | 85 | 1008.6 |
| 20260506220001 | 9 | 35 | 9.7 | 0.0 | 0.00 | 0.00 | 2.31 | 84 | 1007.6 |
| 20260506213001 | 10 | 35 | 9.7 | 0.0 | 0.00 | 0.00 | 2.31 | 84 | 1007.6 |
| 20260506210000 | 10 | 75 | 1.6 | 0.0 | 0.00 | 0.00 | 2.31 | 84 | 1007.6 |
| 20260506203001 | 10 | 105 | 1.6 | 0.0 | 0.00 | 0.00 | 2.31 | 85 | 1007.6 |
| 20260506200001 | 10 | 110 | 6.4 | 0.0 | 0.00 | 0.00 | 2.31 | 86 | 1007.6 |
| 20260506193001 | 10 | 65 | 0.0 | 0.0 | 0.00 | 0.00 | 2.31 | 86 | 1007.6 |
| 20260506190000 | 10 | 85 | 4.8 | 0.0 | 0.00 | 0.00 | 2.31 | 86 | 1006.6 |
| 20260506183003 | 11 | 60 | 1.6 | 0.0 | 0.00 | 0.00 | 2.31 | 86 | 1006.6 |
| 20260506180001 | 11 | 45 | 8.0 | 0.0 | 0.00 | 0.00 | 2.31 | 86 | 1006.6 |
| 20260506173000 | 11 | 95 | 6.4 | 0.0 | 0.00 | 0.00 | 2.31 | 86 | 1006.6 |
| 20260506170002 | 11 | 70 | 9.7 | 0.0 | 0.00 | 0.00 | 2.31 | 85 | 1006.6 |
| 20260506163001 | 12 | 100 | 3.2 | 0.0 | 0.00 | 0.00 | 2.31 | 84 | 1006.6 |
| 20260506160002 | 12 | 55 | 3.2 | 0.0 | 0.00 | 0.00 | 2.31 | 85 | 1006.6 |
| 20260506153000 | 12 | 20 | 4.8 | 0.0 | 0.00 | 0.00 | 2.31 | 84 | 1006.6 |
| 20260506150002 | 12 | 60 | 1.6 | 0.0 | 0.00 | 0.00 | 2.31 | 86 | 1006.6 |
| 20260506143001 | 11 | 335 | 4.8 | 0.0 | 0.00 | 0.00 | 2.31 | 87 | 1006.6 |
| 20260506140001 | 11 | 310 | 3.2 | 0.0 | 0.00 | 0.00 | 2.31 | 87 | 1006.6 |
| 20260506133001 | 11 | 85 | 3.2 | 0.0 | 0.00 | 0.00 | 2.31 | 87 | 1006.6 |
| 20260506130002 | 11 | 90 | 9.7 | 0.0 | 0.00 | 0.00 | 2.31 | 87 | 1005.6 |
| 20260506123001 | 11 | 325 | 4.8 | 0.0 | 0.00 | 0.00 | 2.26 | 87 | 1006.6 |
| 20260506120001 | 11 | 85 | 3.2 | 0.0 | 0.00 | 0.00 | 2.26 | 87 | 1005.6 |
| 20260506113001 | 12 | 220 | 0.0 | 0.0 | 0.00 | 0.00 | 2.26 | 87 | 1005.6 |
| 20260506110001 | 11 | 280 | 4.8 | 0.0 | 0.00 | 0.00 | 2.26 | 88 | 1005.6 |
| 20260506103000 | 11 | 75 | 4.8 | 0.0 | 0.00 | 0.00 | 2.24 | 88 | 1004.6 |
| 20260506100002 | 11 | 35 | 4.8 | 0.0 | 0.00 | 0.00 | 2.21 | 88 | 1004.6 |
| 20260506093000 | 11 | 280 | 0.0 | 0.0 | 0.00 | 0.00 | 2.13 | 88 | 1004.6 |
| 20260506090001 | 11 | 70 | 3.2 | 0.0 | 0.00 | 0.00 | 2.03 | 88 | 1004.6 |
| 20260506083000 | 11 | 70 | 6.4 | 0.0 | 0.00 | 0.00 | 2.01 | 88 | 1003.6 |
| 20260506073003 | 11 | 40 | 6.4 | 0.0 | 0.00 | 0.00 | 1.78 | 88 | 1003.6 |